Flag for Madagascar Weather past 2 weeks in Toamasina, Madagascar

Now
79 °F

Scattered clouds.


Feels Like: 81 °F
Forecast: 66 / 73 °F
Wind: 9 mph from South

Location: Tamatave

Current Time: Jul 29, 2014 at 4:48:07 PM

Latest Report: Jul 29, 2014 at 4:00 PM


Visibility: N/A

Pressure: 30.15 "Hg

Humidity: 74%

Dew point: 70 °F

Location of ToamasinaLocation

Historic Weather in Toamasina — Graph

°F

Toamasina temperature yesterday

Maximum temperature yesterday: 81 °F (at 10:00 AM)
Minimum temperature yesterday: 70 °F (at 3:00 AM)
Average temperature yesterday: 75 °F

Past Weeks' High & Low Weather Summary

 TemperatureHumidityPressure
High81 °F (Jul 28, 10:00 AM)100% (Jul 15, 1:00 AM)30.24 "Hg (Jul 15, 1:00 AM)
Low64 °F (Jul 18, 2:00 AM)65% (Jul 17, 1:00 PM)30.09 "Hg (Jul 14, 4:00 PM)
Average71 °F90%30.15 "Hg
* Reported Jul 14 4:00 PM — Jul 29 4:00 PM, Toamasina, Weather by CustomWeather, © 2014

Note: Actual official high and low records may vary slightly from our data, if they occured in-between our weather recording intervals... More about our weather records

Advertising

Toamasina weather history for previous 24 hours

 ConditionsComfort  
Time TempWeatherWind HumidityBarometerVisibility
4:00 PM
Jul 29
79 °FScattered clouds.9 mph74%30.15 "HgN/A
3:00 PM81 °FScattered clouds.9 mph70%30.15 "HgN/A
2:00 PM81 °FScattered clouds.12 mph70%30.15 "HgN/A
1:00 PM81 °FScattered clouds.9 mph74%30.15 "HgN/A
12:00 PM79 °FScattered clouds.9 mph70%30.18 "HgN/A
11:00 AM79 °FPartly sunny.7 mph74%30.21 "HgN/A
10:00 AM79 °FPartly sunny.7 mph74%30.21 "HgN/A
9:00 AM75 °FPassing clouds.7 mph78%30.21 "HgN/A
8:00 AM73 °FScattered clouds.2 mph78%30.18 "HgN/A
7:00 AM68 °FScattered clouds.No wind94%30.18 "HgN/A
6:00 AM68 °FPassing clouds.No wind94%30.15 "HgN/A
5:00 AM68 °FPassing clouds.No wind94%30.15 "HgN/A
4:00 AM68 °FPassing clouds.No wind94%30.15 "HgN/A
3:00 AM68 °FPassing clouds.No wind94%30.15 "HgN/A
2:00 AM70 °FPassing clouds.No wind94%30.15 "HgN/A
1:00 AM70 °FPassing clouds.No wind94%30.15 "HgN/A
12:00 AM70 °FPassing clouds.No wind94%30.18 "HgN/A
11:00 PM
Jul 28
77 °FPassing clouds.9 mph89%30.12 "HgN/A
10:00 PM77 °FPassing clouds.9 mph89%30.12 "HgN/A
9:00 PM72 °FPassing clouds.No wind94%30.18 "HgN/A
8:00 PM72 °FPassing clouds.No wind94%30.18 "HgN/A
7:00 PM72 °FPassing clouds.No wind94%30.15 "HgN/A
6:00 PM75 °FPassing clouds.No wind83%30.15 "HgN/A
5:00 PM77 °FPassing clouds.2 mph79%30.15 "HgN/A
4:00 PM79 °FPassing clouds.7 mph74%30.12 "HgN/A
Weather by CustomWeather, © 2014

See weather overviewHow to use our weather pages